Location: Arpaise
(41.0333°N, 14.7333°E)
Time: 08:11:29
(UTC+00:00)

Resurs 01 Rocket - Pass Details

Date: 05 July 2020
Orbit: 634 x 644 km, 98.0° (Epoch: 06 August)

Event Time Altitude Azimuth Distance (km) Brightness Sun altitude
Exits shadow 20:45:39 - 216° (SW) 2,530 4.5 -18.5°
Reaches altitude 10° 20:47:29 10° 231° (SW) 2,023 4.1 -18.7°
Maximum altitude 20:50:06 15° 268° (W) 1,690 4.2 -18.9°
Drops below altitude 10° 20:52:44 10° 305° (NW) 2,029 5.2 -19.2°
Sets 20:55:47 0° 328° (NNW) 2,942 6.7 -19.5°
